FORMOSAT 7-5 (44358 NORAD) Tracking and Keplerian Element Data

This shows tracking and keplerian element data for the satellite.

Feedback or suggestion? Click here.




ElementValue
Catalog44358
NameFORMOSAT 7-5
Epoch Orbit397
Epoch Day203.85961556
Epoch Year2019
RAAN31.191
Inclination24.0191
Eccentricity0.001759
Argument of Perigee131.2746
Mean Anonmoly229.6807
Mean Motion14.53482928
Decay Rate4.983E-05
L11 44358U 19036V 19203.85961556 .00004983 00000-0 11212-2 0 9996
L22 44358 24.0191 31.1910 0017590 131.2746 229.6807 14.53482928 3973

Live tracking and technical data element details for FORMOSAT 7-5 (NORAD 44358). FORMOSAT 7-5 can be tracked NOW for your location showing map with azimuth and elevation plus other details from your city location.

Track the satellite on the map from your city or location and see movement details for azimuth, elevation, latitude, longitude, range, height, and movement on the map or in text.







IsCatalogInMostPopularTable: catalog: 44358, numindb: 31
Update: records affected: 1



GetName: 44358 FORMOSAT 7-5

Hit Count: updated at: Wed, 23 Oct 2019 00:00:35 GMT